EHI
0 0 0 0 0 0 0 0 0 0 0 0 0 0 0 0 0 0 0 0 0 0 0 0 0 0 0 1 1 1 0 0 0 0 0 0 0 0 0 0 0 0 0 0
0 0 0 0 0 0 0 0 0 0 0 0 0 0 0 0 0 0 0 0 0 0 0 0 0 0 0 0 0 0 0 0 0 0 0 0 0 0 0 0 0 0 0 0
0 0 0 0 0 0 0 0 0 0 0 0 0 0 0 0 0 0 0 0 0 0 0 0 0 0 0 0 0 0 0 1 0 0 0 0 0 0 0 0 0 0 0 0
0 0 0 0 0 0 0 0 0 0 0 0 0 0 0 0 0 0 0 0 0 0 0 0 0 0 0 0 0 0 0 0 0 0 0 0 0 0 0 0 0 0 0 0
0 0 0 0 0 0 0 0 0 0 0 0 0 0 0 0 0 0 0 0 0 0 0 0 0 0 0 0 0 0 0 0 0 0 0 0 0 0 0 0 0 0 0 0
0 0 0 0 0 0 0 0 0 0 0 0 0 0 0 0 0 0 0 0 0 0 0 0 0 0 0 0 0 0 0 0 0 0 0 0 0 0 0 0 0 0 0 0
0 0 0 0 0 0 0 0 0 0 0 0 0 0 0 0 0 0 0 0 0 0 0 0 0 0 0 0 0 0 0 0 0 0 0 0 0 0 0 0 0 0 0 0
0 0 0 0 0 0 0 0 0 0 0 0 0 0 0 0 0 0 0 0 0 0 0 0 0 0 0 0 0 0 0 0 0 0 0 0 0 0 0 0 0 0 0 0
0 0 0 0 0 0 0 0 0 0 0 0 0 0 0 0 0 0 0 0 0 0 0 0 0 0 0 0 0 0 0 0 0 0 0 0 0 0 0 0 0 0 0 0
0 0 0 0 0 0 0 0 0 0 0 0 0 0 0 0 0 0 0 0 0 0 0 0 0 0 0 0 0 0 0 0 0 0 0 0 0 0 0 0 0 0 0 0
0 0 0 0 0 0 0 0 0 0 0 0 0 0 0 0 0 0 0 0 0 0 0 0 0 0 0 0 0 0 0 0 0 0 0 0 0 0 0 0 0 0 0 0
0 0 0 0 0 0 0 0 0 0 0 0 0 0 0 0 0 0 0 0 0 0 0 0 0 0 0 0 0 0 0 0 0 0 0 0 0 0 0 0 0 0 0 0
0 0 0 0 0 0 0 0 0 0 0 0 0 0 0 0 0 0 0 0 0 0 0 0 0 0 0 0 0 0 0 0 0 0 0 0 0 0 0 0 0 0 0 0
0 0 0 0 0 0 0 0 0 0 0 0 0 0 0 0 0 0 0 0 0 0 0 0 0 0 0 0 0 0 0 0 0 0 0 0 0 0 0 0 0 0 0 0
0 0 0 0 0 0 0 0 0 0 0 0 0 0 0 0 0 0 0 0 0 0 0 0 0 0 0 0 0 0 0 0 0 0 0 0 0 0 0 0 0 0 0 0
0 0 0 0 0 0 0 0 0 0 0 0 0 0 0 0 0 0 0 0 0 0 0 0 0 0 0 0 0 0 0 0 0 0 0 0 0 0 0 0 0 0 0 0
0 0 0 0 0 0 0 0 0 0 0 0 0 0 0 0 0 0 0 0 0 0 0 0 0 0 0 0 0 0 0 0 0 0 0 0 0 0 0 0 0 0 0 0
0 0 0 0 0 0 0 0 0 0 0 0 0 0 0 0 0 0 0 0 0 0 0 0 0 0 0 0 0 0 0 0 0 0 0 0 0 0 0 0 0 0 0 0
0 0 0 0 0 0 0 0 0 0 0 0 0 0 0 0 0 0 0 0 0 0 0 0 0 0 0 0 0 0 0 0 0 0 0 0 0 0 0 0 0 0 0 0
0 0 0 0 0 0 0 0 0 0 0 0 0 0 0 0 0 0 0 0 0 0 0 0 0 0 0 0 0 0 0 0 0 0 0 0 0 0 0 0 0 0 0 0
0 0 0 0 1 1 1 0 0 0 0 0 0 0 0 0 0 0 0 0 0 0 0 0 0 0 0 0 0 0 0 0 0 0 0 0 0 0 0 0 0 0 0 0
0 0 0 0 1 1 1 0 0 0 0 1 1 1 1 0 0 0 0 0 0 0 0 0 0 0 0 0 0 0 0 0 0 0 0 0 0 0 0 0 0 0 0 0
0 0 0 0 0 1 1 0 0 1 1 1 2 3 2 1 0 0 0 0 0 0 0 0 0 0 0 0 0 0 0 0 0 0 0 0 0 0 0 0 0 0 0 0
0 0 0 0 0 0 0 0 0 1 1 1 2 2 2 1 0 0 0 0 0 0 0 0 0 0 0 0 0 0 0 0 0 0 0 0 0 0 0 0 0 0 0 0
0 0 0 0 0 0 0 0 0 1 1 0 1 1 1 1 0 0 0 0 0 0 0 0 0 0 0 0 0 0 0 0 0 0 0 0 0 0 0 0 0 0 0 0
0 0 0 0 0 0 0 0 0 0 0 0 0 0 0 0 0 0 0 0 0 0 0 0 0 0 0 0 0 0 0 0 0 0 0 0 0 0 0 0 0 0 0 0
0 0 0 0 0 0 0 0 0 0 0 0 0 0 0 0 0 0 0 0 0 0 0 0 0 0 0 0 0 0 0 0 0 0 0 0 0 0 0 0 0 0 0 0
Wind_Speed
7 6 4 6 7 7 9 10 10 11 10 14 10 7 7 6 5 6 6 4 3 2 2 1 1 1 1 1 1 2 3 3 3 3 4 4 4 4 5 5 5 4 5 5
4 6 5 6 10 9 9 8 9 8 12 12 7 4 5 6 5 6 6 5 3 3 3 3 2 2 1 1 1 2 3 3 3 4 4 4 5 5 5 5 4 5 5 5
5 3 2 8 11 9 7 8 9 11 13 6 5 7 8 7 6 6 6 5 4 4 4 4 4 3 3 2 2 3 3 3 3 4 4 4 5 5 5 4 4 4 4 5
2 1 7 12 5 6 7 8 9 8 7 7 9 6 5 6 7 7 7 6 5 5 4 4 3 3 2 2 3 3 4 3 4 4 5 4 5 5 4 3 4 3 4 4
4 4 9 10 6 7 7 9 8 9 9 5 2 1 5 7 8 9 7 6 6 5 4 4 3 3 3 3 3 4 4 4 4 5 5 5 5 4 3 4 4 3 3 4
4 4 8 11 6 3 4 6 7 8 9 5 6 1 8 6 7 8 6 5 5 4 4 4 3 3 4 3 4 4 4 4 4 4 5 5 5 4 3 4 5 5 5 5
6 7 11 10 4 5 4 10 6 8 9 8 10 11 7 3 4 6 7 6 5 5 5 4 4 4 4 4 5 4 4 5 4 4 4 4 4 3 5 6 6 5 6 5
4 5 11 5 5 8 11 6 4 7 9 10 12 10 6 5 6 7 7 6 6 6 5 4 5 5 5 5 4 4 5 5 4 4 4 4 5 4 5 6 6 5 5 5
10 11 9 5 8 9 5 6 7 7 9 11 10 10 8 7 8 8 8 8 7 7 6 4 5 6 6 5 5 6 6 5 5 4 4 4 5 6 5 5 5 4 4 4
7 11 10 10 8 8 8 10 11 9 9 9 11 11 9 8 8 8 8 8 6 7 6 6 6 6 6 6 7 7 7 5 5 5 4 4 3 4 5 5 5 4 4 4
9 10 9 9 10 11 10 9 10 9 8 10 12 11 10 9 10 10 9 7 7 8 8 8 7 7 6 7 8 7 6 5 5 4 5 4 3 2 3 3 4 5 4 4
11 13 9 10 10 9 9 10 10 9 9 9 12 13 11 11 11 10 10 8 8 8 8 8 7 7 7 8 9 8 6 6 5 4 4 4 4 3 4 2 3 5 6 6
14 15 12 12 13 13 12 12 11 10 11 11 11 12 12 11 10 10 10 11 12 12 10 8 8 8 8 9 9 9 8 7 5 5 5 5 5 5 4 3 4 4 6 7
13 11 11 11 12 12 11 11 10 9 9 10 9 9 9 10 8 11 13 14 13 11 9 9 9 10 9 10 10 9 8 9 8 6 6 6 6 5 4 5 4 2 2 5
16 11 10 12 12 11 9 7 7 8 7 7 7 8 10 11 13 14 13 11 10 10 10 10 11 11 10 11 11 10 8 6 6 6 6 6 6 5 5 5 4 3 2 3
16 17 18 17 17 17 15 12 8 8 7 6 6 8 10 12 11 10 9 11 12 14 13 12 13 12 11 12 11 9 8 11 9 7 6 6 6 6 6 5 5 5 5 5
18 20 19 19 19 19 19 17 16 14 11 8 6 5 5 6 6 7 8 12 13 13 13 14 14 11 12 13 12 9 8 9 12 8 7 7 7 7 7 7 6 7 7 7
9 9 9 11 13 15 17 18 18 19 17 15 11 5 2 5 8 9 9 9 8 8 11 13 12 11 12 13 12 9 8 8 8 8 7 7 7 7 7 8 8 9 8 7
10 9 9 8 6 7 9 11 13 15 17 17 14 10 6 4 5 5 5 7 10 12 13 12 15 14 14 15 14 9 9 9 8 8 8 9 8 7 7 8 8 9 8 7
11 11 10 10 8 6 6 6 7 9 12 15 15 12 10 8 6 5 5 7 10 10 9 11 14 14 14 15 17 11 11 11 11 9 9 8 8 8 8 9 9 9 8 8
13 13 13 13 12 11 10 9 8 8 9 11 13 13 13 11 9 6 5 7 8 9 9 13 13 12 13 13 17 12 12 12 11 10 10 9 9 9 8 8 8 8 8 8
12 13 14 14 13 13 11 10 11 12 11 11 12 13 13 12 10 8 8 8 8 10 9 9 10 14 16 16 13 13 13 13 12 10 10 10 9 9 9 9 9 8 8 8
12 12 13 13 13 13 14 12 13 13 13 13 13 13 13 12 9 8 8 7 7 10 9 8 12 18 21 16 13 14 15 15 13 12 11 11 11 10 9 10 9 8 8 8
12 12 12 12 12 13 14 13 13 11 12 12 12 12 12 10 9 9 9 10 12 12 8 10 16 19 20 14 13 14 14 14 13 12 12 11 11 10 10 9 9 9 9 10
13 13 13 13 12 11 12 12 13 12 12 10 11 11 10 9 10 9 8 9 12 12 9 11 17 19 16 13 14 14 14 13 13 12 12 11 11 11 10 10 10 9 9 8
13 12 12 12 11 11 10 10 10 10 10 10 9 8 9 8 9 9 8 10 12 12 10 8 9 13 13 13 15 15 14 14 14 13 12 11 11 10 9 9 11 9 8 8
13 12 10 11 10 10 9 9 10 11 10 11 11 10 10 9 9 9 10 9 9 9 8 8 8 9 11 13 14 14 13 12 12 12 11 10 9 9 10 11 9 8 7 7
Wind_Direction
232 236 209 227 232 197 195 204 211 238 242 259 263 257 259 264 277 283 279 263 236 202 206 237 265 260 231 188 119 120 124 128 133 131 127 121 111 100 93 84 78 67 54 41
261 251 235 254 252 236 224 218 224 247 261 254 252 242 251 257 265 272 269 256 223 192 192 188 208 230 213 171 130 124 124 125 126 124 122 122 117 109 101 91 81 69 57 50
255 282 332 269 241 224 219 214 197 221 243 255 235 235 236 241 236 246 250 243 219 196 190 195 207 209 200 192 151 130 128 127 127 127 121 119 121 114 112 107 95 78 61 57
211 150 230 243 238 201 217 243 219 228 242 225 225 237 238 224 221 233 235 229 216 200 195 199 201 198 188 172 158 147 137 132 131 126 119 117 115 115 116 114 109 92 72 64
156 215 265 286 259 197 202 259 228 221 241 242 212 345 287 235 213 219 224 221 210 195 187 190 198 195 178 172 164 155 151 144 141 138 133 128 124 123 120 119 109 95 79 74
160 204 245 248 253 176 135 269 248 210 231 205 133 228 267 253 214 216 215 205 194 182 174 189 204 181 174 177 170 171 162 149 143 142 142 139 135 129 120 118 110 100 81 67
204 227 259 254 239 132 176 241 248 207 215 183 189 216 229 221 210 202 196 195 185 177 186 201 188 167 177 185 194 184 156 142 141 141 142 138 127 121 124 118 110 100 90 73
191 211 256 253 156 189 220 233 239 220 213 203 218 235 231 225 220 200 190 188 181 182 202 205 182 172 182 200 195 159 144 138 136 138 141 135 127 121 125 126 119 113 105 88
199 220 238 233 214 233 226 233 240 228 225 213 223 234 227 220 214 204 196 192 184 187 199 202 190 181 188 194 163 148 141 139 136 130 125 133 138 136 130 132 132 134 127 118
255 261 256 252 251 254 237 232 242 236 229 210 218 227 219 213 207 202 200 193 184 181 192 204 200 195 193 171 158 150 148 146 142 135 128 130 137 147 148 152 148 147 147 144
257 268 281 275 256 252 258 253 252 248 230 217 218 224 213 209 206 203 198 190 181 188 198 206 196 195 186 168 158 154 154 152 149 146 143 138 128 132 160 169 171 165 171 162
255 255 244 254 256 256 259 261 255 251 251 232 214 222 211 209 207 199 197 188 188 198 204 205 193 194 186 173 165 159 161 163 161 155 152 148 138 106 62 104 165 169 162 155
267 274 268 261 266 263 255 255 254 246 240 240 228 219 209 207 203 196 194 192 197 202 203 198 193 197 191 179 173 171 173 172 168 166 163 162 161 154 140 83 89 136 161 168
296 291 284 277 274 274 266 259 259 254 245 236 229 214 207 206 196 194 201 203 201 197 196 193 196 203 193 181 179 181 177 179 176 176 173 172 173 171 163 159 157 155 164 183
349 346 319 314 322 321 310 292 273 263 256 245 225 209 203 201 203 207 207 195 186 190 195 193 200 206 189 181 183 183 181 181 181 178 177 176 174 172 173 175 175 174 174 198
0 11 11 9 2 355 352 348 328 307 292 268 239 220 212 210 212 209 191 178 181 197 200 197 205 203 185 183 185 186 189 192 182 179 178 177 179 181 185 189 193 198 208 208
6 8 6 6 5 4 3 0 353 343 336 326 301 257 217 204 204 203 196 194 199 203 197 198 204 193 184 186 187 189 191 194 189 182 185 185 186 192 195 197 204 213 223 214
354 352 351 352 356 355 354 355 354 349 340 334 333 328 239 205 209 214 208 197 199 209 207 203 197 184 185 188 190 190 189 191 189 189 190 191 193 197 198 203 211 220 230 222
323 320 320 321 327 334 337 340 340 337 332 328 327 324 309 276 247 234 207 189 198 214 219 207 193 186 189 192 188 189 191 193 192 194 194 195 196 199 201 206 213 220 225 220
299 297 293 291 285 274 276 283 300 312 316 315 314 314 312 301 283 258 219 213 217 222 214 197 195 197 197 194 190 193 196 198 199 200 200 200 201 204 205 209 213 217 219 219
300 301 300 297 290 275 259 251 249 259 277 293 299 301 297 289 277 257 232 238 240 228 217 198 197 202 201 195 192 196 198 201 203 203 204 205 206 208 209 210 212 214 216 218
294 297 298 298 295 288 275 258 251 250 250 256 269 277 282 282 277 265 244 241 246 232 219 210 207 204 200 195 196 198 201 203 205 205 205 205 206 208 211 212 214 216 217 217
290 291 294 295 295 293 290 280 267 259 254 252 254 260 265 268 265 259 262 251 245 240 227 219 214 206 196 196 200 200 203 204 205 206 207 207 208 208 210 212 214 215 216 218
290 290 288 289 292 293 290 287 283 276 267 260 255 254 257 263 262 251 249 251 246 244 236 228 221 211 198 201 202 202 203 205 206 207 207 208 209 208 208 209 213 215 217 218
292 292 291 291 292 289 286 286 286 283 278 271 265 261 258 255 256 259 253 249 246 245 243 235 226 217 209 207 204 204 204 204 204 204 205 205 208 209 209 209 211 214 215 216
292 291 288 283 281 282 283 283 282 281 279 277 274 271 268 264 258 256 255 251 247 244 241 240 231 219 215 209 206 204 203 201 200 202 203 203 207 206 207 209 210 212 213 212
292 290 287 285 281 276 276 276 274 274 272 271 274 273 270 267 263 258 254 251 248 244 243 242 236 222 212 207 203 201 199 197 196 197 198 199 200 203 207 209 208 206 203 200